Weather in Romanovka

Russia / Saint-Petersburg and Leningrad Oblast     59°36′53″N   30°12′16″E
temp.,
°C
wind,
m/s
gust,
m/s
humid.,
%
clouds,
%
prec.,
mm/h
press.,
hPa
HPBL,
m
17 september, fri
fri1700:00+3ene2287100 0.0 102221
03:00+2ne229086 0.0 102224
06:00+2ene1190100 0.0 102214
09:00+5ene2472100 0.0 1023226
12:00+10ene355559 0.0 10231461
15:00+11ene454728 0.0 10231620
18:00+8ne476216 0.0 1023624
21:00+4ne27885 0.0 1025158
18 september, sat
sat1800:00+4ene228195 0.0 102529
03:00+7ene2365100 0.0 102687
06:00+6ne2372100 0.0 102672
09:00+8e37696 0.0 1026387
12:00+11e464766 0.0 10261647
15:00+11e464578 0.0 10261683
18:00+10ene37558 0.0 1026555
21:00+5ene297958 0.0 1026267
19 september, sun
sun1900:00+3ene310905 0.0 1027247
03:00+2ne310895 0.0 1027271
06:00+1ene310926 0.0 1027254
09:00+4ene4973100 0.0 1027388
12:00+8ene575771 0.0 1027991
15:00+10e574858 0.0 10261285
18:00+8ene485714 0.0 10261129
21:00+4ne311765 0.0 1027346
20 september, mon
mon2000:00+4ene41277100 0.0 1027380
03:00+3ene41181100 0.0 1027389
06:00+2ne41185100 0.0 1028486
09:00+3ene51274100 0.0 1028651
12:00+6ene685499 0.0 10281112
15:00+8ene5748100 0.0 10261344
18:00+7ne495794 0.0 10261204
21:00+4ene5116896 0.0 1026662
21 september, tue
tue2100:00+3ne41075100 0.0 1026493
03:00+2ne41079100 0.0 1025418
06:000ne31185100 0.0 1024396
09:00+2ne4107688 0.0 1023438
12:00+7ne4655100 0.0 1022786
15:00+8ne4652100 0.0 1021990
18:00+7ne3761100 0.0 1021665
21:00+6nne3969100 0.0 1021306